{"data":{"norad_id":60066,"epoch":"2026-09-21T09:38:32.717184Z","epoch_age_seconds":99674,"freshness":"FRESH","line1":"1 60066U 24113H   26264.40176756  .00001138  00000+0  14252-4 0  9995","line2":"2 60066  53.1593 306.1526 0001233  95.0918 265.0241 15.69708367130309","mean_motion":15.69708367,"eccentricity":0.0001233,"inclination_deg":53.1593,"raan_deg":306.1526,"arg_perigee_deg":95.0918,"mean_anomaly_deg":265.0241,"bstar":1.4252e-5,"rev_number":13030,"period_min":91.736785652236,"perigee_km":358.90064426814,"apogee_km":360.56220262136,"semimajor_km":6737.8684234448,"source":"CELESTRAK","updated_at":"2026-09-22T09:00:49.147639Z"}}